Wetterdaten: Woche 27.10.25 - 02.11.25 (KW44)
Datum Zeit Temp. I. Temp. A. Feuchte I. Feuchte A. Luftdruck Regen Wind Richtung Sonnenschein Solar Taupunkt Windchill Windböen
27.10.2025 00:00 21,0 °C 6,3 °C 59 % 79 % 1000,9 hPa 0,0 l/m² 16,7 km/h (3 Bft) SW 0,00 h 0 W/m² 2,9 °C 0,0 °C 22,9 km/h (4 Bft)
27.10.2025 01:00 21,0 °C 6,6 °C 59 % 78 % 1000,3 hPa 0,0 l/m² 24,4 km/h (4 Bft) SW 0,00 h 0 W/m² 3,1 °C -2,4 °C 32,9 km/h (5 Bft)
27.10.2025 02:00 20,9 °C 6,6 °C 59 % 79 % 999,3 hPa 0,0 l/m² 27,2 km/h (5 Bft) SW 0,00 h 0 W/m² 3,3 °C -3,3 °C 36,7 km/h (5 Bft)
27.10.2025 03:00 20,8 °C 6,6 °C 59 % 80 % 998,0 hPa 0,0 l/m² 27,7 km/h (5 Bft) SW 0,00 h 0 W/m² 3,4 °C -3,4 °C 37,0 km/h (5 Bft)
27.10.2025 04:00 20,8 °C 6,8 °C 58 % 81 % 996,9 hPa 0,2 l/m² 30,4 km/h (5 Bft) S-SW 0,00 h 0 W/m² 3,8 °C -3,8 °C 40,8 km/h (6 Bft)
27.10.2025 05:00 20,9 °C 6,8 °C 58 % 82 % 996,0 hPa 0,0 l/m² 18,9 km/h (3 Bft) S-SW 0,00 h 0 W/m² 4,0 °C -0,3 °C 25,7 km/h (4 Bft)
27.10.2025 06:00 20,9 °C 6,9 °C 58 % 83 % 995,2 hPa 0,0 l/m² 15,4 km/h (3 Bft) S-SW 0,00 h 0 W/m² 4,2 °C 1,4 °C 22,1 km/h (4 Bft)
27.10.2025 07:00 20,8 °C 6,9 °C 57 % 85 % 994,3 hPa 0,2 l/m² 22,0 km/h (4 Bft) S-SW 0,00 h 15 W/m² 4,6 °C -1,3 °C 29,8 km/h (5 Bft)
27.10.2025 08:00 20,9 °C 7,0 °C 57 % 88 % 993,8 hPa 0,0 l/m² 20,3 km/h (4 Bft) SW 0,37 h 40 W/m² 5,1 °C -0,6 °C 27,0 km/h (4 Bft)
27.10.2025 09:00 20,9 °C 8,0 °C 57 % 87 % 993,5 hPa 0,0 l/m² 24,1 km/h (4 Bft) SW 0,88 h 72 W/m² 6,0 °C -0,6 °C 32,1 km/h (5 Bft)
27.10.2025 10:00 20,8 °C 8,9 °C 57 % 85 % 993,7 hPa 0,0 l/m² 24,8 km/h (4 Bft) SW 1,00 h 130 W/m² 6,5 °C 0,5 °C 32,5 km/h (5 Bft)
27.10.2025 11:00 20,8 °C 9,3 °C 57 % 84 % 993,8 hPa 0,0 l/m² 19,0 km/h (3 Bft) SW 0,95 h 160 W/m² 6,7 °C 2,9 °C 25,5 km/h (4 Bft)
27.10.2025 12:00 20,8 °C 9,4 °C 57 % 84 % 993,8 hPa 0,0 l/m² 17,0 km/h (3 Bft) SW 0,85 h 122 W/m² 6,8 °C 3,7 °C 23,9 km/h (4 Bft)
27.10.2025 13:00 20,8 °C 10,2 °C 57 % 80 % 993,8 hPa 0,0 l/m² 25,4 km/h (4 Bft) W-SW 1,02 h 274 W/m² 6,9 °C 2,0 °C 34,1 km/h (5 Bft)
27.10.2025 14:00 20,9 °C 11,3 °C 56 % 77 % 994,3 hPa 0,0 l/m² 23,0 km/h (4 Bft) W-SW 1,00 h 288 W/m² 7,4 °C 4,2 °C 30,3 km/h (5 Bft)
27.10.2025 15:00 21,0 °C 10,8 °C 57 % 77 % 995,0 hPa 0,0 l/m² 20,4 km/h (4 Bft) W-SW 0,98 h 98 W/m² 6,9 °C 4,3 °C 27,6 km/h (5 Bft)
27.10.2025 16:00 20,9 °C 9,9 °C 57 % 80 % 996,2 hPa 0,0 l/m² 21,3 km/h (4 Bft) W-SW 0,30 h 39 W/m² 6,5 °C 2,8 °C 28,1 km/h (5 Bft)
27.10.2025 17:00 20,8 °C 9,1 °C 56 % 82 % 997,7 hPa 0,0 l/m² 17,5 km/h (3 Bft) SW 0,00 h 0 W/m² 6,1 °C 3,0 °C 24,1 km/h (4 Bft)
27.10.2025 18:00 20,8 °C 8,3 °C 57 % 85 % 999,1 hPa 0,0 l/m² 16,6 km/h (3 Bft) W-SW 0,00 h 0 W/m² 5,9 °C 2,4 °C 21,6 km/h (4 Bft)
27.10.2025 19:00 20,9 °C 7,9 °C 58 % 88 % 1000,4 hPa 0,0 l/m² 13,1 km/h (3 Bft) W-SW 0,00 h 0 W/m² 6,0 °C 3,6 °C 17,8 km/h (3 Bft)
27.10.2025 20:00 21,2 °C 7,7 °C 58 % 88 % 1001,3 hPa 0,0 l/m² 12,3 km/h (2 Bft) SW 0,00 h 0 W/m² 5,8 °C 3,8 °C 17,1 km/h (3 Bft)
27.10.2025 21:00 21,2 °C 7,2 °C 58 % 87 % 1002,2 hPa 0,0 l/m² 12,1 km/h (2 Bft) SW 0,00 h 0 W/m² 5,2 °C 3,3 °C 17,1 km/h (3 Bft)
27.10.2025 22:00 21,2 °C 7,3 °C 59 % 88 % 1003,0 hPa 0,0 l/m² 13,7 km/h (3 Bft) W-SW 0,00 h 0 W/m² 5,4 °C 2,6 °C 18,5 km/h (3 Bft)
27.10.2025 23:00 21,1 °C 7,2 °C 59 % 88 % 1003,7 hPa 0,0 l/m² 15,3 km/h (3 Bft) SW 0,00 h 0 W/m² 5,3 °C 1,6 °C 21,3 km/h (4 Bft)
28.10.2025 00:00 21,1 °C 7,1 °C 58 % 87 % 1004,3 hPa 0,0 l/m² 15,6 km/h (3 Bft) SW 0,00 h 0 W/m² 5,1 °C 1,4 °C 21,5 km/h (4 Bft)
28.10.2025 01:00 21,0 °C 7,2 °C 58 % 87 % 1004,8 hPa 0,0 l/m² 16,2 km/h (3 Bft) W-SW 0,00 h 0 W/m² 5,1 °C 1,2 °C 22,6 km/h (4 Bft)
28.10.2025 02:00 21,0 °C 7,2 °C 58 % 86 % 1005,6 hPa 0,0 l/m² 16,9 km/h (3 Bft) SW 0,00 h 0 W/m² 5,0 °C 1,0 °C 23,5 km/h (4 Bft)
28.10.2025 03:00 21,0 °C 7,3 °C 58 % 86 % 1006,2 hPa 0,2 l/m² 19,8 km/h (4 Bft) SW 0,00 h 0 W/m² 5,2 °C -0,1 °C 25,9 km/h (4 Bft)
28.10.2025 04:00 21,0 °C 7,0 °C 58 % 88 % 1006,4 hPa 0,0 l/m² 15,1 km/h (3 Bft) SW 0,00 h 0 W/m² 5,2 °C 1,6 °C 21,0 km/h (4 Bft)
28.10.2025 05:00 21,0 °C 7,2 °C 58 % 87 % 1006,8 hPa 0,0 l/m² 15,6 km/h (3 Bft) SW 0,00 h 0 W/m² 5,3 °C 1,7 °C 20,7 km/h (4 Bft)
28.10.2025 06:00 20,9 °C 6,5 °C 58 % 88 % 1006,9 hPa 0,0 l/m² 11,3 km/h (2 Bft) SW 0,00 h 6 W/m² 4,6 °C 3,0 °C 15,3 km/h (3 Bft)
28.10.2025 07:00 20,9 °C 6,8 °C 56 % 89 % 1006,5 hPa 0,0 l/m² 12,3 km/h (2 Bft) SW 0,08 h 29 W/m² 5,0 °C 2,7 °C 15,9 km/h (3 Bft)
28.10.2025 08:00 20,9 °C 7,8 °C 56 % 87 % 1005,8 hPa 0,0 l/m² 13,9 km/h (3 Bft) S-SW 0,87 h 61 W/m² 5,8 °C 3,2 °C 18,1 km/h (3 Bft)
28.10.2025 09:00 20,9 °C 8,6 °C 56 % 86 % 1005,2 hPa 0,4 l/m² 13,3 km/h (3 Bft) S-SW 0,00 h 30 W/m² 6,3 °C 4,3 °C 17,6 km/h (3 Bft)
28.10.2025 10:00 20,9 °C 8,7 °C 56 % 89 % 1004,3 hPa 0,4 l/m² 16,3 km/h (3 Bft) S-SW 0,50 h 69 W/m² 6,9 °C 3,2 °C 21,5 km/h (4 Bft)
28.10.2025 11:00 20,9 °C 9,1 °C 56 % 90 % 1003,5 hPa 0,0 l/m² 12,4 km/h (2 Bft) S-SW 0,65 h 58 W/m² 7,5 °C 5,4 °C 16,3 km/h (3 Bft)
28.10.2025 12:00 20,9 °C 10,2 °C 56 % 90 % 1002,5 hPa 0,0 l/m² 17,1 km/h (3 Bft) SW 0,72 h 99 W/m² 8,6 °C 4,9 °C 24,5 km/h (4 Bft)
28.10.2025 13:00 20,9 °C 11,8 °C 56 % 87 % 1002,0 hPa 0,0 l/m² 25,3 km/h (4 Bft) SW 1,00 h 194 W/m² 9,7 °C 4,3 °C 35,2 km/h (5 Bft)
28.10.2025 14:00 20,8 °C 12,2 °C 56 % 85 % 1001,7 hPa 0,0 l/m² 23,4 km/h (4 Bft) SW 1,00 h 121 W/m² 9,8 °C 5,3 °C 32,6 km/h (5 Bft)
28.10.2025 15:00 20,8 °C 12,3 °C 57 % 85 % 1001,9 hPa 0,2 l/m² 26,9 km/h (4 Bft) SW 0,40 h 47 W/m² 9,8 °C 4,6 °C 35,9 km/h (5 Bft)
28.10.2025 16:00 20,8 °C 11,5 °C 57 % 88 % 1002,7 hPa 1,2 l/m² 22,8 km/h (4 Bft) W-SW 0,00 h 10 W/m² 9,5 °C 4,6 °C 30,7 km/h (5 Bft)
28.10.2025 17:00 20,8 °C 11,2 °C 57 % 85 % 1003,5 hPa 0,0 l/m² 19,7 km/h (3 Bft) W-SW 0,00 h 0 W/m² 8,8 °C 5,0 °C 25,3 km/h (4 Bft)
28.10.2025 18:00 21,0 °C 10,7 °C 57 % 86 % 1004,2 hPa 0,0 l/m² 14,9 km/h (3 Bft) W-SW 0,00 h 0 W/m² 8,4 °C 6,1 °C 20,3 km/h (4 Bft)
28.10.2025 19:00 21,1 °C 9,8 °C 59 % 85 % 1005,3 hPa 0,0 l/m² 14,6 km/h (3 Bft) SW 0,00 h 0 W/m² 7,4 °C 5,1 °C 19,4 km/h (3 Bft)
28.10.2025 20:00 21,3 °C 9,0 °C 60 % 86 % 1006,4 hPa 0,0 l/m² 10,6 km/h (2 Bft) SW 0,00 h 0 W/m² 6,8 °C 6,3 °C 14,6 km/h (3 Bft)
28.10.2025 21:00 21,3 °C 8,4 °C 59 % 88 % 1007,1 hPa 0,0 l/m² 11,6 km/h (2 Bft) S-SW 0,00 h 0 W/m² 6,6 °C 5,0 °C 14,4 km/h (3 Bft)
28.10.2025 22:00 21,1 °C 8,3 °C 59 % 88 % 1007,9 hPa 0,0 l/m² 12,6 km/h (3 Bft) SW 0,00 h 0 W/m² 6,4 °C 4,2 °C 16,2 km/h (3 Bft)
28.10.2025 23:00 21,1 °C 7,5 °C 60 % 88 % 1008,3 hPa 0,0 l/m² 12,0 km/h (2 Bft) SW 0,00 h 0 W/m² 5,7 °C 3,7 °C 15,6 km/h (3 Bft)
29.10.2025 00:00 21,1 °C 7,8 °C 60 % 88 % 1008,6 hPa 0,0 l/m² 15,4 km/h (3 Bft) S-SW 0,00 h 0 W/m² 5,8 °C 2,3 °C 19,7 km/h (3 Bft)
29.10.2025 01:00 21,0 °C 7,3 °C 60 % 87 % 1008,9 hPa 0,0 l/m² 11,1 km/h (2 Bft) S-SW 0,00 h 0 W/m² 5,3 °C 4,0 °C 14,3 km/h (3 Bft)
29.10.2025 02:00 21,1 °C 6,6 °C 60 % 88 % 1008,9 hPa 0,0 l/m² 8,4 km/h (2 Bft) SW 0,00 h 0 W/m² 4,7 °C 5,0 °C 10,6 km/h (2 Bft)
29.10.2025 03:00 21,1 °C 6,1 °C 60 % 89 % 1009,1 hPa 0,0 l/m² 5,8 km/h (2 Bft) S-SW 0,00 h 0 W/m² 4,5 °C 5,6 °C 8,3 km/h (2 Bft)
29.10.2025 04:00 21,0 °C 6,3 °C 60 % 90 % 1009,3 hPa 0,0 l/m² 7,8 km/h (2 Bft) SW 0,00 h 0 W/m² 4,8 °C 4,6 °C 11,0 km/h (2 Bft)
29.10.2025 05:00 21,0 °C 6,1 °C 59 % 90 % 1009,3 hPa 0,0 l/m² 1,8 km/h (1 Bft) S 0,00 h 0 W/m² 4,6 °C 6,1 °C 3,8 km/h (1 Bft)
29.10.2025 06:00 20,9 °C 5,8 °C 59 % 91 % 1009,4 hPa 0,0 l/m² 1,9 km/h (1 Bft) S-SW 0,00 h 5 W/m² 4,5 °C 5,4 °C 3,5 km/h (1 Bft)
29.10.2025 07:00 20,9 °C 6,6 °C 57 % 92 % 1009,5 hPa 0,0 l/m² 3,2 km/h (1 Bft) S-SW 0,27 h 37 W/m² 5,4 °C 6,3 °C 4,8 km/h (1 Bft)
29.10.2025 08:00 21,1 °C 7,9 °C 57 % 92 % 1009,7 hPa 0,0 l/m² 1,4 km/h (1 Bft) S-SW 1,00 h 149 W/m² 6,7 °C 7,9 °C 2,6 km/h (1 Bft)
29.10.2025 09:00 21,2 °C 10,8 °C 57 % 89 % 1009,6 hPa 0,0 l/m² 2,8 km/h (1 Bft) S-SW 1,00 h 217 W/m² 9,0 °C 10,7 °C 4,9 km/h (1 Bft)
29.10.2025 10:00 21,3 °C 13,0 °C 57 % 84 % 1009,3 hPa 0,0 l/m² 9,7 km/h (2 Bft) S 1,00 h 375 W/m² 10,4 °C 11,1 °C 13,6 km/h (3 Bft)
29.10.2025 11:00 21,4 °C 14,3 °C 57 % 80 % 1009,0 hPa 0,0 l/m² 13,8 km/h (3 Bft) S-SW 1,00 h 358 W/m² 10,9 °C 10,9 °C 18,2 km/h (3 Bft)
29.10.2025 12:00 21,4 °C 15,1 °C 57 % 76 % 1008,6 hPa 0,0 l/m² 16,9 km/h (3 Bft) S-SW 1,00 h 417 W/m² 11,0 °C 10,8 °C 22,4 km/h (4 Bft)
29.10.2025 13:00 21,4 °C 15,6 °C 57 % 72 % 1007,8 hPa 0,0 l/m² 15,4 km/h (3 Bft) S-SW 1,00 h 324 W/m² 10,5 °C 11,9 °C 20,0 km/h (4 Bft)
29.10.2025 14:00 21,4 °C 14,4 °C 57 % 72 % 1007,3 hPa 0,0 l/m² 12,5 km/h (2 Bft) S 1,00 h 145 W/m² 9,4 °C 11,5 °C 16,7 km/h (3 Bft)
29.10.2025 15:00 21,3 °C 13,6 °C 57 % 77 % 1006,7 hPa 0,0 l/m² 6,8 km/h (2 Bft) S-SO 0,72 h 70 W/m² 9,6 °C 13,1 °C 9,6 km/h (2 Bft)
29.10.2025 16:00 21,3 °C 12,6 °C 57 % 79 % 1006,0 hPa 0,0 l/m² 6,2 km/h (2 Bft) SO 0,00 h 17 W/m² 8,9 °C 12,3 °C 9,0 km/h (2 Bft)
29.10.2025 17:00 21,3 °C 11,6 °C 58 % 80 % 1005,5 hPa 0,0 l/m² 6,2 km/h (2 Bft) S-SO 0,00 h 0 W/m² 8,4 °C 10,9 °C 9,2 km/h (2 Bft)
29.10.2025 18:00 21,2 °C 10,9 °C 57 % 82 % 1004,9 hPa 0,0 l/m² 6,6 km/h (2 Bft) O-SO 0,00 h 0 W/m² 7,9 °C 10,4 °C 10,2 km/h (2 Bft)
29.10.2025 19:00 21,1 °C 10,7 °C 57 % 82 % 1004,2 hPa 0,0 l/m² 8,0 km/h (2 Bft) O-SO 0,00 h 0 W/m² 7,8 °C 9,6 °C 11,5 km/h (2 Bft)
29.10.2025 20:00 21,1 °C 10,3 °C 58 % 83 % 1003,1 hPa 0,0 l/m² 4,8 km/h (1 Bft) NO 0,00 h 0 W/m² 7,6 °C 10,2 °C 7,6 km/h (2 Bft)
29.10.2025 21:00 21,3 °C 9,9 °C 58 % 84 % 1002,3 hPa 0,0 l/m² 2,1 km/h (1 Bft) O-NO 0,00 h 0 W/m² 7,4 °C 9,9 °C 3,9 km/h (1 Bft)
29.10.2025 22:00 21,3 °C 9,7 °C 58 % 86 % 1001,9 hPa 0,0 l/m² 2,1 km/h (1 Bft) O-NO 0,00 h 0 W/m² 7,4 °C 9,7 °C 3,5 km/h (1 Bft)
29.10.2025 23:00 21,2 °C 10,0 °C 58 % 86 % 1001,4 hPa 0,0 l/m² 0,9 km/h (0 Bft) SO 0,00 h 0 W/m² 7,8 °C 10,0 °C 2,1 km/h (1 Bft)
30.10.2025 00:00 21,2 °C 10,8 °C 58 % 85 % 1000,4 hPa 0,0 l/m² 5,5 km/h (2 Bft) SO 0,00 h 0 W/m² 8,4 °C 10,4 °C 9,2 km/h (2 Bft)
30.10.2025 01:00 21,1 °C 11,5 °C 58 % 83 % 999,5 hPa 0,0 l/m² 5,6 km/h (2 Bft) SO 0,00 h 0 W/m² 8,7 °C 10,8 °C 9,3 km/h (2 Bft)
30.10.2025 02:00 21,1 °C 11,8 °C 58 % 82 % 998,8 hPa 0,0 l/m² 6,5 km/h (2 Bft) S-SO 0,00 h 0 W/m² 8,8 °C 11,3 °C 9,7 km/h (2 Bft)
30.10.2025 03:00 21,0 °C 11,8 °C 58 % 83 % 997,8 hPa 0,4 l/m² 8,7 km/h (2 Bft) SO 0,00 h 0 W/m² 9,1 °C 10,4 °C 13,2 km/h (3 Bft)
30.10.2025 04:00 21,0 °C 11,6 °C 58 % 85 % 996,4 hPa 0,0 l/m² 7,6 km/h (2 Bft) S-SO 0,00 h 0 W/m² 9,2 °C 10,3 °C 11,6 km/h (2 Bft)
30.10.2025 05:00 21,1 °C 12,1 °C 58 % 84 % 996,3 hPa 0,0 l/m² 13,2 km/h (3 Bft) S 0,00 h 0 W/m² 9,6 °C 8,7 °C 18,8 km/h (3 Bft)
30.10.2025 06:00 21,1 °C 12,7 °C 58 % 85 % 997,0 hPa 0,0 l/m² 23,7 km/h (4 Bft) SW 0,00 h 0 W/m² 10,3 °C 5,8 °C 32,5 km/h (5 Bft)
30.10.2025 07:00 21,1 °C 12,1 °C 58 % 84 % 998,8 hPa 0,0 l/m² 25,0 km/h (4 Bft) W-SW 0,00 h 17 W/m² 9,5 °C 4,7 °C 33,3 km/h (5 Bft)
30.10.2025 08:00 21,0 °C 11,9 °C 57 % 84 % 1000,6 hPa 0,8 l/m² 19,4 km/h (3 Bft) SW 0,50 h 48 W/m² 9,3 °C 6,1 °C 26,4 km/h (4 Bft)
30.10.2025 09:00 21,0 °C 11,3 °C 57 % 81 % 1002,5 hPa 0,0 l/m² 23,5 km/h (4 Bft) W-SW 0,83 h 154 W/m² 8,2 °C 4,1 °C 33,0 km/h (5 Bft)
30.10.2025 10:00 21,1 °C 11,7 °C 57 % 77 % 1004,6 hPa 0,2 l/m² 26,9 km/h (4 Bft) W-SW 1,00 h 183 W/m² 7,9 °C 3,8 °C 35,4 km/h (5 Bft)
30.10.2025 11:00 21,2 °C 11,9 °C 57 % 75 % 1006,4 hPa 0,0 l/m² 27,8 km/h (5 Bft) W-SW 1,00 h 384 W/m² 7,6 °C 3,8 °C 37,9 km/h (6 Bft)
30.10.2025 12:00 21,5 °C 13,1 °C 59 % 67 % 1007,7 hPa 0,0 l/m² 30,2 km/h (5 Bft) W-SW 1,00 h 465 W/m² 7,2 °C 5,0 °C 41,9 km/h (6 Bft)
30.10.2025 13:00 21,4 °C 13,6 °C 58 % 65 % 1008,9 hPa 0,0 l/m² 25,2 km/h (4 Bft) W-SW 1,00 h 388 W/m² 7,2 °C 6,8 °C 34,1 km/h (5 Bft)
30.10.2025 14:00 21,4 °C 13,7 °C 59 % 63 % 1009,7 hPa 0,0 l/m² 25,5 km/h (4 Bft) W-SW 0,88 h 248 W/m² 6,7 °C 6,8 °C 33,6 km/h (5 Bft)
30.10.2025 15:00 21,3 °C 12,7 °C 59 % 66 % 1010,6 hPa 0,0 l/m² 19,2 km/h (3 Bft) W-SW 0,85 h 105 W/m² 6,6 °C 7,1 °C 25,1 km/h (4 Bft)
30.10.2025 16:00 21,3 °C 11,6 °C 58 % 69 % 1011,3 hPa 0,0 l/m² 14,1 km/h (3 Bft) W-SW 0,05 h 22 W/m² 6,1 °C 7,6 °C 18,3 km/h (3 Bft)
30.10.2025 17:00 21,2 °C 9,5 °C 55 % 74 % 1012,2 hPa 0,0 l/m² 3,9 km/h (1 Bft) SW 0,00 h 0 W/m² 5,0 °C 9,1 °C 5,6 km/h (2 Bft)
30.10.2025 18:00 21,1 °C 7,2 °C 53 % 78 % 1013,4 hPa 0,0 l/m² 1,1 km/h (1 Bft) SW 0,00 h 0 W/m² 3,5 °C 7,2 °C 1,9 km/h (1 Bft)
30.10.2025 19:00 21,1 °C 6,1 °C 54 % 84 % 1014,1 hPa 0,0 l/m² 5,0 km/h (1 Bft) W-SW 0,00 h 0 W/m² 3,5 °C 6,0 °C 6,4 km/h (2 Bft)
30.10.2025 20:00 21,1 °C 5,3 °C 54 % 84 % 1014,6 hPa 0,0 l/m² 1,2 km/h (1 Bft) W-SW 0,00 h 0 W/m² 2,9 °C 5,3 °C 2,1 km/h (1 Bft)
30.10.2025 21:00 21,4 °C 4,5 °C 54 % 86 % 1015,1 hPa 0,0 l/m² 1,1 km/h (1 Bft) O-SO 0,00 h 0 W/m² 2,4 °C 4,5 °C 2,1 km/h (1 Bft)
30.10.2025 22:00 21,4 °C 3,6 °C 55 % 88 % 1015,6 hPa 0,0 l/m² 0,9 km/h (0 Bft) O-SO 0,00 h 0 W/m² 1,7 °C 3,6 °C 1,6 km/h (1 Bft)
30.10.2025 23:00 21,2 °C 2,8 °C 55 % 89 % 1015,8 hPa 0,0 l/m² 0,9 km/h (0 Bft) O-SO 0,00 h 0 W/m² 1,1 °C 2,8 °C 1,8 km/h (1 Bft)
31.10.2025 00:00 21,2 °C 2,1 °C 55 % 89 % 1015,9 hPa 0,0 l/m² 0,1 km/h (0 Bft) O-SO 0,00 h 0 W/m² 0,5 °C 2,1 °C 0,3 km/h (0 Bft)
31.10.2025 01:00 21,2 °C 1,5 °C 55 % 90 % 1016,1 hPa 0,0 l/m² 0,4 km/h (0 Bft) O-SO 0,00 h 0 W/m² -0,0 °C 1,5 °C 1,0 km/h (0 Bft)
31.10.2025 02:00 21,2 °C 1,1 °C 55 % 90 % 1016,4 hPa 0,0 l/m² 0,0 km/h (0 Bft) O-SO 0,00 h 0 W/m² -0,3 °C 1,1 °C 0,0 km/h (0 Bft)
31.10.2025 03:00 21,1 °C 0,6 °C 56 % 91 % 1016,0 hPa 0,0 l/m² 0,3 km/h (0 Bft) O-SO 0,00 h 0 W/m² -0,7 °C 0,6 °C 0,7 km/h (0 Bft)
31.10.2025 04:00 21,1 °C 0,3 °C 56 % 91 % 1016,0 hPa 0,0 l/m² 0,0 km/h (0 Bft) O-SO 0,00 h 0 W/m² -1,0 °C 0,3 °C 0,0 km/h (0 Bft)
31.10.2025 05:00 21,2 °C 0,0 °C 55 % 91 % 1016,2 hPa 0,0 l/m² 0,0 km/h (0 Bft) O-SO 0,00 h 0 W/m² -1,3 °C 0,0 °C 0,1 km/h (0 Bft)
31.10.2025 06:00 21,2 °C -0,3 °C 55 % 91 % 1016,5 hPa 0,0 l/m² 0,0 km/h (0 Bft) O-SO 0,00 h 5 W/m² -1,6 °C -0,3 °C 0,1 km/h (0 Bft)
31.10.2025 07:00 21,2 °C -0,4 °C 55 % 92 % 1017,2 hPa 0,0 l/m² 0,0 km/h (0 Bft) O-SO 0,15 h 27 W/m² -1,6 °C -0,4 °C 0,0 km/h (0 Bft)
31.10.2025 08:00 21,3 °C 1,2 °C 55 % 93 % 1017,4 hPa 0,0 l/m² 0,0 km/h (0 Bft) O-SO 1,00 h 121 W/m² 0,1 °C 1,2 °C 0,0 km/h (0 Bft)
31.10.2025 09:00 21,3 °C 3,8 °C 55 % 93 % 1017,2 hPa 0,0 l/m² 2,9 km/h (1 Bft) O-SO 1,00 h 218 W/m² 2,8 °C 3,8 °C 4,3 km/h (1 Bft)
31.10.2025 10:00 21,2 °C 7,4 °C 50 % 92 % 1016,9 hPa 0,0 l/m² 5,0 km/h (1 Bft) O-SO 1,00 h 356 W/m² 6,2 °C 7,3 °C 7,2 km/h (2 Bft)
31.10.2025 11:00 21,2 °C 10,8 °C 48 % 80 % 1016,7 hPa 0,0 l/m² 6,0 km/h (2 Bft) SO 1,00 h 427 W/m² 7,5 °C 10,3 °C 9,0 km/h (2 Bft)
31.10.2025 12:00 21,2 °C 11,7 °C 47 % 74 % 1016,2 hPa 0,0 l/m² 5,6 km/h (2 Bft) S-SO 0,98 h 279 W/m² 7,3 °C 11,3 °C 8,6 km/h (2 Bft)
31.10.2025 13:00 20,9 °C 11,9 °C 46 % 73 % 1015,5 hPa 0,0 l/m² 6,6 km/h (2 Bft) O-SO 1,00 h 167 W/m² 7,2 °C 11,3 °C 9,7 km/h (2 Bft)
31.10.2025 14:00 20,9 °C 12,0 °C 49 % 74 % 1015,2 hPa 0,0 l/m² 3,1 km/h (1 Bft) O-SO 1,00 h 104 W/m² 7,4 °C 11,9 °C 5,2 km/h (1 Bft)
31.10.2025 15:00 20,9 °C 11,7 °C 50 % 74 % 1014,8 hPa 0,0 l/m² 6,6 km/h (2 Bft) O-SO 0,65 h 51 W/m² 7,3 °C 11,1 °C 9,6 km/h (2 Bft)
31.10.2025 16:00 20,9 °C 11,0 °C 50 % 76 % 1014,4 hPa 0,0 l/m² 8,6 km/h (2 Bft) O 0,00 h 15 W/m² 6,9 °C 9,3 °C 11,8 km/h (2 Bft)
31.10.2025 17:00 20,9 °C 10,1 °C 51 % 77 % 1014,5 hPa 0,0 l/m² 1,8 km/h (1 Bft) O 0,00 h 0 W/m² 6,2 °C 9,9 °C 2,5 km/h (1 Bft)
31.10.2025 18:00 20,7 °C 8,7 °C 50 % 82 % 1014,5 hPa 0,0 l/m² 4,1 km/h (1 Bft) O 0,00 h 0 W/m² 5,7 °C 8,1 °C 5,8 km/h (2 Bft)
31.10.2025 19:00 20,9 °C 8,2 °C 53 % 82 % 1014,7 hPa 0,0 l/m² 0,4 km/h (0 Bft) S-SW 0,00 h 0 W/m² 5,4 °C 8,2 °C 1,0 km/h (0 Bft)
31.10.2025 20:00 21,1 °C 8,4 °C 55 % 84 % 1014,7 hPa 0,0 l/m² 1,3 km/h (1 Bft) S-SW 0,00 h 0 W/m² 5,8 °C 8,4 °C 2,7 km/h (1 Bft)
31.10.2025 21:00 21,4 °C 8,4 °C 57 % 84 % 1014,8 hPa 0,0 l/m² 0,2 km/h (0 Bft) W-SW 0,00 h 0 W/m² 5,9 °C 8,4 °C 0,7 km/h (0 Bft)
31.10.2025 22:00 21,3 °C 7,8 °C 56 % 86 % 1014,6 hPa 0,0 l/m² 0,7 km/h (0 Bft) W-SW 0,00 h 0 W/m² 5,6 °C 7,8 °C 1,5 km/h (1 Bft)
31.10.2025 23:00 21,2 °C 8,0 °C 56 % 88 % 1014,6 hPa 0,0 l/m² 0,7 km/h (0 Bft) NO 0,00 h 0 W/m² 6,1 °C 8,0 °C 1,8 km/h (1 Bft)
01.11.2025 00:00 21,2 °C 9,2 °C 57 % 87 % 1014,4 hPa 0,0 l/m² 4,4 km/h (1 Bft) SO 0,00 h 0 W/m² 7,2 °C 8,9 °C 8,5 km/h (2 Bft)
01.11.2025 01:00 21,2 °C 9,6 °C 57 % 85 % 1014,5 hPa 0,0 l/m² 6,3 km/h (2 Bft) S-SW 0,00 h 0 W/m² 7,2 °C 8,8 °C 9,3 km/h (2 Bft)
01.11.2025 02:00 21,1 °C 8,3 °C 57 % 85 % 1014,6 hPa 0,0 l/m² 4,2 km/h (1 Bft) S-SW 0,00 h 0 W/m² 6,0 °C 8,3 °C 5,9 km/h (2 Bft)
01.11.2025 03:00 21,2 °C 8,3 °C 57 % 88 % 1014,3 hPa 0,0 l/m² 1,7 km/h (1 Bft) S-SO 0,00 h 0 W/m² 6,4 °C 8,3 °C 3,8 km/h (1 Bft)
01.11.2025 04:00 21,2 °C 7,2 °C 57 % 86 % 1014,2 hPa 0,0 l/m² 0,0 km/h (0 Bft) S-SO 0,00 h 0 W/m² 5,1 °C 7,2 °C 0,0 km/h (0 Bft)
01.11.2025 05:00 21,1 °C 5,8 °C 57 % 88 % 1013,9 hPa 0,0 l/m² 0,3 km/h (0 Bft) S-SO 0,00 h 0 W/m² 4,0 °C 5,8 °C 1,1 km/h (1 Bft)
01.11.2025 06:00 21,1 °C 5,1 °C 57 % 89 % 1013,9 hPa 0,0 l/m² 0,0 km/h (0 Bft) S-SO 0,00 h 0 W/m² 3,5 °C 5,1 °C 0,2 km/h (0 Bft)
01.11.2025 07:00 21,2 °C 4,3 °C 57 % 90 % 1013,7 hPa 0,0 l/m² 0,0 km/h (0 Bft) S-SO 0,10 h 30 W/m² 2,8 °C 4,3 °C 0,2 km/h (0 Bft)
01.11.2025 08:00 21,3 °C 5,9 °C 57 % 92 % 1013,6 hPa 0,0 l/m² 0,2 km/h (0 Bft) SO 1,00 h 115 W/m² 4,8 °C 5,9 °C 1,0 km/h (0 Bft)
01.11.2025 09:00 21,3 °C 9,7 °C 57 % 93 % 1013,2 hPa 0,0 l/m² 0,9 km/h (0 Bft) SO 1,00 h 224 W/m² 8,6 °C 9,7 °C 1,8 km/h (1 Bft)
01.11.2025 10:00 21,2 °C 12,2 °C 55 % 88 % 1012,7 hPa 0,0 l/m² 5,1 km/h (1 Bft) SO 1,00 h 174 W/m² 10,3 °C 11,8 °C 7,8 km/h (2 Bft)
01.11.2025 11:00 21,1 °C 13,6 °C 54 % 84 % 1012,4 hPa 0,0 l/m² 5,0 km/h (1 Bft) O-SO 1,00 h 201 W/m² 10,9 °C 13,5 °C 7,4 km/h (2 Bft)
01.11.2025 12:00 21,2 °C 15,2 °C 57 % 79 % 1011,5 hPa 0,0 l/m² 5,7 km/h (2 Bft) O-SO 1,00 h 138 W/m² 11,6 °C 15,0 °C 8,7 km/h (2 Bft)
01.11.2025 13:00 21,3 °C 15,6 °C 58 % 80 % 1011,2 hPa 0,0 l/m² 4,9 km/h (1 Bft) SO 1,00 h 88 W/m² 12,0 °C 15,3 °C 8,3 km/h (2 Bft)
01.11.2025 14:00 21,3 °C 15,9 °C 58 % 78 % 1010,7 hPa 0,0 l/m² 3,7 km/h (1 Bft) SO 0,27 h 43 W/m² 12,1 °C 15,9 °C 6,3 km/h (2 Bft)
01.11.2025 15:00 21,3 °C 15,5 °C 58 % 79 % 1010,7 hPa 0,0 l/m² 1,6 km/h (1 Bft) SO 0,00 h 16 W/m² 12,0 °C 15,5 °C 2,9 km/h (1 Bft)
01.11.2025 16:00 21,3 °C 14,5 °C 59 % 84 % 1011,1 hPa 1,0 l/m² 1,9 km/h (1 Bft) S-SO 0,00 h 5 W/m² 11,9 °C 14,5 °C 3,3 km/h (1 Bft)
01.11.2025 17:00 21,3 °C 13,7 °C 59 % 88 % 1011,2 hPa 1,0 l/m² 5,8 km/h (2 Bft) S-SO 0,00 h 0 W/m² 11,7 °C 13,4 °C 8,8 km/h (2 Bft)
01.11.2025 18:00 21,3 °C 13,5 °C 59 % 88 % 1011,2 hPa 0,2 l/m² 7,1 km/h (2 Bft) S-SO 0,00 h 0 W/m² 11,6 °C 12,8 °C 10,3 km/h (2 Bft)
01.11.2025 19:00 21,2 °C 13,2 °C 59 % 89 % 1011,4 hPa 0,6 l/m² 3,0 km/h (1 Bft) S-SO 0,00 h 0 W/m² 11,5 °C 13,2 °C 5,2 km/h (1 Bft)
01.11.2025 20:00 21,2 °C 13,0 °C 59 % 91 % 1011,6 hPa 0,0 l/m² 3,7 km/h (1 Bft) S-SO 0,00 h 0 W/m² 11,5 °C 12,9 °C 6,0 km/h (2 Bft)
01.11.2025 21:00 21,1 °C 12,7 °C 59 % 91 % 1011,5 hPa 0,0 l/m² 5,5 km/h (2 Bft) S-SW 0,00 h 0 W/m² 11,3 °C 12,4 °C 8,5 km/h (2 Bft)
01.11.2025 22:00 21,1 °C 12,2 °C 59 % 91 % 1011,6 hPa 0,0 l/m² 4,0 km/h (1 Bft) S-SW 0,00 h 0 W/m² 10,8 °C 12,1 °C 6,0 km/h (2 Bft)
01.11.2025 23:00 21,1 °C 12,3 °C 59 % 92 % 1011,5 hPa 0,0 l/m² 9,4 km/h (2 Bft) SW 0,00 h 0 W/m² 11,1 °C 10,5 °C 12,3 km/h (2 Bft)
02.11.2025 00:00 21,2 °C 12,2 °C 58 % 91 % 1011,6 hPa 0,0 l/m² 7,4 km/h (2 Bft) SW 0,00 h 0 W/m² 10,8 °C 11,5 °C 9,1 km/h (2 Bft)
02.11.2025 01:00 21,2 °C 11,9 °C 58 % 91 % 1011,9 hPa 0,0 l/m² 10,0 km/h (2 Bft) SW 0,00 h 0 W/m² 10,4 °C 9,4 °C 14,1 km/h (3 Bft)
02.11.2025 02:00 21,1 °C 11,4 °C 58 % 89 % 1012,4 hPa 0,0 l/m² 1,6 km/h (1 Bft) SW 0,00 h 0 W/m² 9,6 °C 11,4 °C 2,4 km/h (1 Bft)
02.11.2025 03:00 21,1 °C 10,7 °C 59 % 90 % 1012,1 hPa 0,0 l/m² 1,6 km/h (1 Bft) SW 0,00 h 0 W/m² 9,1 °C 10,7 °C 2,3 km/h (1 Bft)
02.11.2025 04:00 21,1 °C 10,6 °C 59 % 90 % 1011,9 hPa 0,0 l/m² 2,3 km/h (1 Bft) SW 0,00 h 0 W/m² 9,1 °C 10,6 °C 3,9 km/h (1 Bft)
02.11.2025 05:00 21,0 °C 10,4 °C 59 % 90 % 1012,0 hPa 0,0 l/m² 0,1 km/h (0 Bft) S-SW 0,00 h 0 W/m² 8,9 °C 10,4 °C 0,1 km/h (0 Bft)
02.11.2025 06:00 21,1 °C 10,2 °C 59 % 91 % 1011,9 hPa 0,0 l/m² 0,0 km/h (0 Bft) SW 0,00 h 0 W/m² 8,7 °C 10,2 °C 0,1 km/h (0 Bft)
02.11.2025 07:00 21,1 °C 9,6 °C 59 % 91 % 1012,4 hPa 0,0 l/m² 0,0 km/h (0 Bft) S-SW 0,00 h 17 W/m² 8,2 °C 9,6 °C 0,1 km/h (0 Bft)
02.11.2025 08:00 21,2 °C 9,2 °C 60 % 92 % 1012,7 hPa 0,0 l/m² 0,0 km/h (0 Bft) S-SW 0,15 h 43 W/m² 7,9 °C 9,2 °C 0,1 km/h (0 Bft)
02.11.2025 09:00 21,2 °C 9,9 °C 59 % 93 % 1012,6 hPa 0,0 l/m² 0,5 km/h (0 Bft) S-SW 1,02 h 89 W/m² 8,8 °C 9,9 °C 1,6 km/h (1 Bft)
02.11.2025 10:00 21,1 °C 11,2 °C 58 % 93 % 1012,5 hPa 0,0 l/m² 5,6 km/h (2 Bft) SW 1,00 h 100 W/m² 10,1 °C 10,1 °C 8,5 km/h (2 Bft)
02.11.2025 11:00 21,1 °C 12,0 °C 59 % 89 % 1012,3 hPa 0,0 l/m² 6,6 km/h (2 Bft) SW 1,00 h 132 W/m² 10,3 °C 11,4 °C 9,3 km/h (2 Bft)
02.11.2025 12:00 21,1 °C 12,7 °C 58 % 86 % 1011,9 hPa 0,0 l/m² 7,2 km/h (2 Bft) SW 1,00 h 134 W/m² 10,4 °C 11,9 °C 10,0 km/h (2 Bft)
02.11.2025 13:00 21,3 °C 13,0 °C 60 % 85 % 1011,5 hPa 0,0 l/m² 9,0 km/h (2 Bft) S-SW 1,00 h 195 W/m² 10,5 °C 11,5 °C 12,0 km/h (2 Bft)
02.11.2025 14:00 21,3 °C 13,4 °C 60 % 81 % 1011,5 hPa 0,0 l/m² 12,5 km/h (2 Bft) SW 1,00 h 125 W/m² 10,3 °C 10,3 °C 16,5 km/h (3 Bft)
02.11.2025 15:00 21,3 °C 13,0 °C 60 % 82 % 1011,3 hPa 0,0 l/m² 4,3 km/h (1 Bft) S-SW 0,53 h 51 W/m² 10,1 °C 12,5 °C 5,8 km/h (2 Bft)
02.11.2025 16:00 21,5 °C 12,4 °C 60 % 84 % 1011,4 hPa 0,0 l/m² 0,2 km/h (0 Bft) S-SW 0,00 h 21 W/m² 9,8 °C 12,4 °C 0,6 km/h (0 Bft)
02.11.2025 17:00 21,3 °C 11,2 °C 60 % 86 % 1011,3 hPa 0,0 l/m² 0,7 km/h (0 Bft) S-SW 0,00 h 0 W/m² 9,1 °C 11,2 °C 1,4 km/h (1 Bft)
02.11.2025 18:00 21,3 °C 10,9 °C 60 % 88 % 1011,4 hPa 0,0 l/m² 0,5 km/h (0 Bft) O-SO 0,00 h 0 W/m² 9,0 °C 10,9 °C 1,2 km/h (1 Bft)
02.11.2025 19:00 21,3 °C 10,7 °C 61 % 88 % 1011,5 hPa 0,0 l/m² 0,2 km/h (0 Bft) S-SO 0,00 h 0 W/m² 8,8 °C 10,7 °C 0,5 km/h (0 Bft)
02.11.2025 20:00 21,3 °C 10,5 °C 62 % 90 % 1011,7 hPa 0,2 l/m² 0,1 km/h (0 Bft) S-SO 0,00 h 0 W/m² 8,9 °C 10,5 °C 0,3 km/h (0 Bft)
02.11.2025 21:00 21,7 °C 10,1 °C 62 % 90 % 1011,9 hPa 0,0 l/m² 0,1 km/h (0 Bft) S-SO 0,00 h 0 W/m² 8,5 °C 10,1 °C 0,4 km/h (0 Bft)
02.11.2025 22:00 21,7 °C 9,7 °C 61 % 90 % 1011,9 hPa 0,0 l/m² 0,3 km/h (0 Bft) S 0,00 h 0 W/m² 8,2 °C 9,7 °C 0,8 km/h (0 Bft)
02.11.2025 23:00 21,5 °C 9,7 °C 61 % 91 % 1012,0 hPa 0,0 l/m² 2,2 km/h (1 Bft) S-SW 0,00 h 0 W/m² 8,3 °C 9,7 °C 4,2 km/h (1 Bft)
Min-Datum _ 31.10.25 31.10.25 31.10.25 30.10.25 27.10.25 - 02.11.25 - - - 31.10.25 27.10.25 02.11.25
_ Min-Zeit 18:07 07:01 13:00 14:25 09:22 - 22:01 - - - 07:01 04:35 22:01
Minimum _ 20,7 °C -0,5 °C 46 % 61 % 993,3 hPa - 0,0 km/h (0 Bft) - - - -1,8 °C -5,8 °C 0,0 km/h (0 Bft)
Max-Datum _ 02.11.25 01.11.25 02.11.25 01.11.25 31.10.25 28.10.25 27.10.25 - 30.10.25 29.10.25 01.11.25 01.11.25 30.10.25
_ Max-Zeit 22:00 14:07 21:00 09:30 08:00 16:03 04:35 - 12:07 12:42 13:41 14:15 12:17
Maximum _ 21,7 °C 16,0 °C 63 % 94 % 1017,5 hPa 1,2 l/m² 40,5 km/h
S-SW (6 Bft)
- 0,12 h 582 W/m² 12,4 °C 16,0 °C 54,7 km/h
W-SW (7 Bft)
Durchschnitt _ 21,1 °C 9,4 °C 57 % 85 % 1008,0 hPa #7,2 l/m² 9,4 km/h (2 Bft) SW #48:31 h 58 W/m² 6,9 °C 6,8 °C 13,0 km/h (3 Bft)
© 2009 Mathias Hoßbach